[[{"header":{"parameterUnit":"m.s-1","parameterCategory":1,"la1":30.2991,"la2":30.254,"lo1":-89.0895,"lo2":-89.0444,"dy":0.0017,"dx":0.0017,"nx":28,"ny":28,"refTime":"2025-05-28T09:00:00:Z","depth":0,"parameterNumber":2,"parameterNumberName":"U-component_of_WINDS"},"data":[0,0,0,0,0,0,0,0,0,0,0,0,0,0,0,0,0,0,0,0,0,0,0,0,0,0,0,0,0,0,0,0,0,0,0,0,0,0,0,0,0,0,0,0,0,0,0,0,0,0,0,0,0,0,0,0,0,0,0.1914,0.1915,0,0.2021,0.2022,0.2023,0.2076,0.2076,0.2076,0.2076,0.2192,0.2195,0.2198,0,0,0,0,0,0,0,0,0,0,0,0,0,0.1759,0.1762,0.1914,0.1915,0.1916,0.2021,0.2022,0.2024,0.2076,0.2076,0.2076,0.2076,0.2191,0.2194,0.2198,0,0,0,0,0,0,0,0,0,0,0,0,0,0.1842,0.1763,0.1913,0.1955,0.196,0.202,0.2022,0.2024,0.2076,0.2076,0.2076,0.2076,0.219,0.2194,0.2199,0.2228,0,0,0.2213,0.2215,0,0,0,0,0,0,0,0,0.1838,0.1848,0.1947,0.1952,0.1958,0.2035,0.201,0.2093,0.2076,0.2032,0.2076,0.2076,0.214,0.2149,0.2169,0.2233,0.2238,0.2213,0.2216,0.2218,0.2219,0,0,0,0,0,0,0,0.1832,0.1844,0.1956,0.1949,0.1955,0.197,0.1982,0.2026,0.2085,0.2036,0.204,0.2052,0.2143,0.2164,0.2172,0.224,0.2213,0.2217,0.222,0.2222,0.2334,0.2334,0,0,0,0,0,0,0.1819,0.1839,0.1953,0.1959,0.1896,0.1973,0.1986,0.201,0.2085,0.2096,0.2052,0.2054,0.2157,0.2167,0.2176,0.2216,0.2218,0.2222,0.2225,0.2334,0.2334,0.2335,0,0,0,0,0,0,0.1815,0.1828,0.1948,0.19,0.1917,0.1975,0.2002,0.2012,0.2034,0.2096,0.2108,0.2062,0.2157,0.217,0.2214,0.2221,0.2225,0.2229,0.2334,0.2334,0.2334,0.2295,0,0,0,0,0,0,0.181,0.1827,0.1837,0.19,0.1919,0.1983,0.2003,0.2014,0.2041,0.2045,0.211,0.2121,0.2158,0.2207,0.2219,0.2227,0.2232,0.2334,0.2334,0.2334,0.2296,0.2294,0.2292,0,0,0,0,0,0.1805,0.1823,0.1837,0.1851,0.1933,0.1983,0.1994,0.2035,0.2041,0.2053,0.2093,0.2118,0.2218,0.2211,0.2225,0.2235,0.2333,0.2334,0.2334,0.2297,0.2294,0.2292,0,0,0,0,0,0,0.1762,0.1832,0.1849,0.1888,0.1929,0.1992,0.2008,0.2031,0.2073,0.2075,0.2126,0.214,0.218,0.2212,0.2203,0.2267,0.2278,0.2281,0.2245,0.2243,0.2241,0.2233,0.2236,0,0,0,0,0,0.1756,0.1789,0.185,0.1878,0.1898,0.1949,0.1973,0.2,0.2046,0.2064,0.2108,0.2152,0.2194,0.222,0.2262,0.23,0.2316,0.2314,0.2312,0.231,0.2312,0.2336,0.2336,0.2336,0.2336,0.2336,0,0,0.1746,0.1789,0.1807,0.1871,0.1906,0.194,0.1964,0.1999,0.2026,0.207,0.2114,0.2148,0.2201,0.2242,0.2263,0.2271,0.2315,0.231,0.2308,0.2312,0.2336,0.2336,0.2336,0.2336,0.2336,0.2336,0,0,0.1746,0.1781,0.1808,0.1843,0.1895,0.1929,0.1935,0.1995,0.2018,0.2062,0.2096,0.2129,0.2199,0.2236,0.2264,0.2276,0.2301,0.2288,0.2278,0.23,0.23,0.2301,0.2306,0.2307,0.229,0.229,0.229,0,0.1728,0.1779,0.182,0.1854,0.1881,0.192,0.1949,0.1981,0.2045,0.2064,0.207,0.2158,0.2197,0.2248,0.2251,0.2272,0.2282,0.2282,0.2297,0.2297,0.2298,0.2304,0.2305,0.2289,0.2289,0.2289,0.2289,0,0.1754,0.179,0.1806,0.1864,0.1893,0.1925,0.1972,0.1997,0.2022,0.2055,0.21,0.2148,0.22,0.2214,0.224,0.2268,0.2271,0.2286,0.2299,0.2296,0.2301,0.2304,0.2286,0.2287,0.2287,0.2288,0,0,0.1731,0.181,0.1815,0.1842,0.1902,0.1931,0.1965,0.2013,0.2034,0.2076,0.2106,0.2164,0.2178,0.221,0.224,0.2259,0.2266,0.2273,0.2275,0.227,0.2302,0.229,0.2291,0.2283,0.2283,0.2284,0.2297,0,0.1739,0.1798,0.1836,0.1881,0.1915,0.1952,0.1981,0.2022,0.2054,0.2089,0.2125,0.2165,0.2181,0.22,0.2221,0.2261,0.2273,0.226,0.2313,0.2314,0.2298,0.2295,0.2283,0.2293,0.23,0.23,0.2301,0,0.1757,0.1796,0.1844,0.19,0.1915,0.194,0.1988,0.202,0.2067,0.209,0.2124,0.2154,0.2192,0.22,0.2254,0.2244,0.2268,0.2291,0.2292,0.23,0.2307,0.2302,0.2298,0.2299,0.2304,0.2304,0.2304,0,0.1735,0.18,0.1837,0.1859,0.1925,0.1942,0.1971,0.2018,0.2044,0.2086,0.2104,0.2151,0.2177,0.2213,0.2255,0.2257,0.2305,0.2317,0.2326,0.2325,0.2335,0.2334,0.2335,0.2349,0.2349,0.2349,0.2349,0,0.1741,0.1769,0.1828,0.1851,0.1884,0.1927,0.1959,0.1991,0.2032,0.2063,0.2099,0.2128,0.2181,0.2217,0.2251,0.229,0.2302,0.2322,0.2331,0.2319,0.2317,0.2336,0.2337,0.2349,0.2349,0.2349,0.2349,0,0.1722,0.1763,0.1806,0.1864,0.188,0.1901,0.1952,0.1976,0.201,0.2048,0.206,0.2113,0.2157,0.2202,0.2262,0.2285,0.2324,0.2336,0.2307,0.2312,0.2319,0.2318,0.2333,0.2337,0.2347,0.2347,0.2347,0,0.1723,0.1745,0.1806,0.1828,0.1855,0.189,0.1917,0.1961,0.1988,0.2043,0.2061,0.2107,0.2146,0.2214,0.2259,0.2305,0.2319,0.2321,0.2327,0.2314,0.232,0.2318,0.2321,0.2319,0.2319,0.2319,0.2319,0,0.1721,0.174,0.1776,0.182,0.185,0.1887,0.1925,0.1942,0.1993,0.2022,0.2066,0.2096,0.2156,0.2201,0.2252,0.2284,0.2311,0.2316,0.2321,0.231,0.2292,0.2302,0.2303,0.2316,0.2316,0.2317,0.2317,0.2317,0.1713,0.1734,0.178,0.1819,0.1852,0.1887,0.1912,0.1948,0.1985,0.2036,0.206,0.2104,0.2151,0.2222,0.2253,0.2289,0.2297,0.2304,0.2306,0.2307,0.2304,0.2285,0.2299,0.2299,0.2299,0.2299,0.2299,0,0.1713,0.1744,0.1779,0.1831,0.1862,0.1882,0.1925,0.195,0.1988,0.2029,0.2066,0.2117,0.2161,0.2209,0.2256,0.2276,0.2289,0.2287,0.2286,0.2293,0.2294,0.2286,0.2275,0.2275,0.2275,0.2275,0.2275,0.2275,0.1717,0.1754,0.1778,0.1832,0.1863,0.1905,0.1928,0.1961,0.1994,0.2048,0.2084,0.2114,0.2159,0.2209,0.2251,0.2264,0.228,0.2275,0.2291,0.2291,0.2293,0.2295,0.2287,0.2278,0.2278,0.2288,0.2288,0.2288]},{"header":{"parameterUnit":"m.s-1","parameterCategory":1,"la1":30.2991,"la2":30.254,"lo1":-89.0895,"lo2":-89.0444,"dy":0.0017,"dx":0.0017,"nx":28,"ny":28,"refTime":"2025-05-28T09:00:00:Z","depth":0,"parameterNumber":3,"parameterNumberName":"V-component_of_WINDS"},"data":[0,0,0,0,0,0,0,0,0,0,0,0,0,0,0,0,0,0,0,0,0,0,0,0,0,0,0,0,0,0,0,0,0,0,0,0,0,0,0,0,0,0,0,0,0,0,0,0,0,0,0,0,0,0,0,0,0,0,3.0084,3.0084,0,3.0044,3.0043,3.0043,3.0033,3.0034,3.0034,3.0034,2.9987,2.9986,2.9984,0,0,0,0,0,0,0,0,0,0,0,0,0,3.0149,3.0148,3.0085,3.0084,3.0084,3.0044,3.0043,3.0043,3.0033,3.0034,3.0034,3.0034,2.9988,2.9986,2.9984,0,0,0,0,0,0,0,0,0,0,0,0,0,3.0116,3.0147,3.0085,3.0074,3.0073,3.0044,3.0043,3.0043,3.0033,3.0034,3.0034,3.0034,2.9988,2.9986,2.9984,2.9961,0,0,2.9977,2.9976,0,0,0,0,0,0,0,0,3.0117,3.0113,3.0076,3.0075,3.0073,3.0044,3.0049,3.0015,3.0033,3.0048,3.0034,3.0035,3.0006,3.0002,2.9993,2.9959,2.9957,2.9977,2.9975,2.9974,2.9974,0,0,0,0,0,0,0,3.012,3.0115,3.0068,3.0076,3.0074,3.007,3.0066,3.0042,3.0025,3.0047,3.0046,3.0042,3.0005,2.9995,2.9992,2.9956,2.9977,2.9975,2.9973,2.9973,2.9901,2.99,0,0,0,0,0,0,3.0125,3.0117,3.007,3.0067,3.0097,3.0068,3.0064,3.0053,3.0025,3.0021,3.0041,3.0041,2.9999,2.9995,2.999,2.9961,2.9975,2.9972,2.9971,2.9901,2.9901,2.99,0,0,0,0,0,0,3.0126,3.0121,3.0071,3.0092,3.0085,3.0067,3.0055,3.0052,3.0043,3.0021,3.0017,3.0035,2.9999,2.9994,2.9969,2.996,2.9971,2.9969,2.9902,2.9901,2.99,2.9904,0,0,0,0,0,0,3.0128,3.0121,3.0113,3.0092,3.0084,3.0052,3.0054,3.0051,3.0039,3.0039,3.0014,3.0011,2.9999,2.9972,2.9967,2.9957,2.9968,2.9903,2.9902,2.9901,2.9904,2.9903,2.9902,0,0,0,0,0,3.013,3.0115,3.0113,3.0107,3.0075,3.0051,3.0047,3.0036,3.0039,3.003,3.0016,3.0011,2.9962,2.997,2.9963,2.9953,2.9903,2.9902,2.9901,2.9905,2.9903,2.9902,0,0,0,0,0,0,3.0134,3.0112,3.011,3.0087,3.0072,3.005,3.0039,3.0035,3.0016,3.0016,3.0002,2.9996,2.9972,2.996,2.9969,2.9929,2.9932,2.993,2.9938,2.9936,2.9935,2.9938,2.9966,0,0,0,0,0,3.0133,3.0118,3.0098,3.008,3.0073,3.0057,3.0047,3.004,3.0022,3.0015,2.9999,2.998,2.9961,2.9948,2.9928,2.9903,2.9896,2.9892,2.9891,2.989,2.9888,2.9872,2.9869,2.9896,2.9896,2.9896,0,0,3.0129,3.0115,3.0106,3.0081,3.0068,3.0051,3.0051,3.0033,3.002,3.0011,2.9987,2.9975,2.9953,2.9928,2.9916,2.9917,2.9879,2.9889,2.9888,2.9886,2.987,2.9868,2.9866,2.9895,2.9895,2.9895,0,0,3.0113,3.0102,3.0085,3.0073,3.0054,3.0043,3.004,3.0019,3.0011,2.9987,2.998,2.9963,2.9929,2.9914,2.9902,2.9881,2.9875,2.9875,2.9868,2.9854,2.9851,2.9849,2.9841,2.9838,2.9873,2.9873,2.9873,0,3.011,3.0086,3.0077,3.0059,3.0048,3.0041,3.0023,3.0011,2.9986,2.9977,2.9979,2.9937,2.9922,2.9893,2.9888,2.9879,2.9872,2.9877,2.9853,2.9851,2.9849,2.984,2.9837,2.9873,2.9873,2.9873,2.9873,0,3.0083,3.0066,3.0055,3.0033,3.002,3.0002,2.9989,2.9977,2.9971,2.996,2.9935,2.9917,2.9894,2.9886,2.988,2.9856,2.9857,2.9856,2.9859,2.9846,2.9838,2.9835,2.9873,2.9873,2.9873,2.9873,0,0,3.0067,3.0041,3.0037,3.0027,3.0006,2.9991,2.9973,2.9952,2.9941,2.9924,2.9907,2.988,2.9879,2.9865,2.9857,2.9844,2.9827,2.9844,2.9844,2.9841,2.9798,2.9798,2.9794,2.9824,2.9823,2.9823,2.9799,0,3.0048,3.0017,3.0008,2.9981,2.9964,2.9958,2.9942,2.9926,2.9916,2.9899,2.9886,2.9866,2.9868,2.9859,2.9846,2.9832,2.9818,2.9833,2.9806,2.9805,2.981,2.979,2.979,2.9768,2.9796,2.9795,2.9795,0,3.0021,3.0006,2.9977,2.9958,2.9951,2.9937,2.9916,2.9901,2.9883,2.9876,2.9861,2.9854,2.9832,2.9838,2.9807,2.9818,2.9806,2.9797,2.9796,2.9792,2.9798,2.9784,2.9762,2.9758,2.979,2.979,2.9791,0,3.0011,2.9983,2.9962,2.9954,2.9931,2.9921,2.9911,2.9893,2.9881,2.9863,2.9855,2.9834,2.9822,2.9805,2.9791,2.9797,2.9762,2.9766,2.9754,2.9754,2.9745,2.9746,2.972,2.974,2.974,2.974,2.974,0,2.999,2.9973,2.9958,2.9945,2.9925,2.9914,2.9894,2.9883,2.9868,2.9851,2.9844,2.9828,2.9813,2.9794,2.9784,2.9759,2.9754,2.9747,2.9744,2.9747,2.9747,2.9738,2.9738,2.9739,2.9739,2.974,2.974,0,2.9975,2.9965,2.9942,2.9923,2.9918,2.9903,2.9886,2.9873,2.9862,2.9842,2.9836,2.9819,2.9797,2.9783,2.9754,2.9747,2.972,2.9718,2.9727,2.9725,2.9713,2.9714,2.9678,2.9673,2.9698,2.9698,2.9698,0,2.9962,2.9948,2.9929,2.9918,2.9908,2.9891,2.9879,2.9868,2.9856,2.9834,2.9823,2.9801,2.9783,2.9748,2.9732,2.971,2.9706,2.9695,2.9702,2.9706,2.9704,2.9705,2.9703,2.9693,2.9693,2.9693,2.9693,0,2.9938,2.9934,2.9918,2.99,2.9887,2.9872,2.9856,2.9848,2.9834,2.982,2.9798,2.9785,2.9756,2.9734,2.9711,2.9698,2.9692,2.9691,2.9687,2.9689,2.9694,2.969,2.9722,2.9692,2.9692,2.9692,2.9692,2.9692,2.9923,2.991,2.9895,2.9877,2.9865,2.9851,2.9837,2.9826,2.9809,2.9786,2.978,2.9758,2.9739,2.9707,2.9694,2.9675,2.9676,2.967,2.9668,2.9666,2.9666,2.9699,2.9671,2.9671,2.9671,2.9671,2.9671,0,2.9898,2.9888,2.9872,2.9852,2.9837,2.9836,2.9819,2.9806,2.9787,2.9771,2.9754,2.9729,2.9707,2.969,2.9668,2.9655,2.9652,2.965,2.965,2.9646,2.9667,2.9672,2.9653,2.9653,2.9653,2.9653,2.9653,2.9653,2.9883,2.9862,2.9856,2.9829,2.9818,2.9797,2.9788,2.9774,2.9761,2.9734,2.9717,2.9707,2.969,2.9666,2.9645,2.9641,2.9632,2.963,2.9624,2.9643,2.9645,2.9647,2.9652,2.9628,2.9628,2.9605,2.9605,2.9605]}]]